Regional Weather Roundup
Issued by NWS

Home | Current Version | Previous Version | Graphics & Text | Print | Product List | Glossary On
Versions: 1 2 3 4 5 6 7 8 9 10 11 12 13 14 15 16 17 18 19 20 21 22 23 24 25 26 27 28 29 30 31 32 33 34 35 36 37 38 39 40 41 42 43 44 45 46 47 48 49 50
000
ASUS43 KIND 191809
RWRIN

WEATHER ROUNDUP FOR INDIANA
NATIONAL WEATHER SERVICE INDIANAPOLIS IN
200 PM EDT SUN OCT 19 2014

NOTE: "FAIR" INDICATES FEW OR NO CLOUDS BELOW 12,000 FEET WITH NO
SIGNIFICANT WEATHER AND/OR OBSTRUCTIONS TO VISIBILITY.

* - STATION DOES NOT REPORT WEATHER SUCH AS PRECIPITATION OR FOG.

+ - STATION NOT QUALITY CONTROLLED BY THE NATIONAL WEATHER SERVICE.
    USE DATA WITH CAUTION...ESPECIALLY DEWPOINT AND RELATIVE
    HUMIDITY OBSERVATIONS.

INZ001>003-010>013-019-020-191900-
NORTHWEST INDIANA

CITY           SKY/WX    TMP DP  RH WIND       PRES   REMARKS
GARY /AIRPORT/ PTSUNNY   54  37  54 SW12      30.17F
KNOX *+        PTSUNNY   52  37  56 SW7       30.17F
LA PORTE +     PTSUNNY   53  39  60 SW10G16   30.17F
6HR MIN TEMP:  33; 6HR MAX TEMP:  53;

MICHIGAN CITY+ PTSUNNY   52  36  54 SW10      30.16F
MONTICELLO +   PTSUNNY   52  39  63 SW9       30.19F
RENSSELAER +   PTSUNNY   54  43  66 S13       30.19F
VALPARAISO     PTSUNNY   51  38  60 SW12      30.17F
6HR MIN TEMP:  32; 6HR MAX TEMP:  51;


$$

LMZ046-743>745-191900-
SOUTHERN LAKE MICHIGAN

STATION/POSITION TIME  TEMP WIND        PRES
                       AIR  DIR/SP/G
                 (UTC) (F)  (DEG/KT/KT) (MB)
MICHIGAN CITY    1800   49  180/ 12/ 14   N/A

$$

INZ004-005-014>016-021>024-191900-
NORTH CENTRAL INDIANA

CITY           SKY/WX    TMP DP  RH WIND       PRES   REMARKS
GOSHEN         PTSUNNY   51  39  63 SW9       30.17F
6HR MIN TEMP:  31; 6HR MAX TEMP:  51;

LOGANSPORT +   PTSUNNY   52  36  54 SW7       30.20F
PERU/GRISSOM   PTSUNNY   52  42  68 SW8       30.19F
6HR MIN TEMP:  35; 6HR MAX TEMP:  52;

ROCHESTER +    PTSUNNY   54  39  58 SW6       30.18F
SOUTH BEND     PTSUNNY   52  37  56 SW13G22   30.17F
6HR MIN TEMP:  32; 6HR MAX TEMP:  52;

WARSAW +       PTSUNNY   50  36  57 SW5       30.19F

$$

INZ006>009-017-018-025>027-191900-
NORTHEAST INDIANA

CITY           SKY/WX    TMP DP  RH WIND       PRES   REMARKS
ANGOLA *+      SUNNY     50  37  62 W8        30.16F
AUBURN +       PTSUNNY   50  34  53 W5        30.19F
FORT WAYNE     CLOUDY    51  35  54 W6        30.20F
6HR MIN TEMP:  32; 6HR MAX TEMP:  52;

HUNTINGTON +   PTSUNNY   51  37  59 SW5       30.19F
6HR MIN TEMP:  32; 6HR MAX TEMP:  51;


$$

INZ028-029-035-036-043>045-051>053-191900-
WEST CENTRAL INDIANA

CITY           SKY/WX    TMP DP  RH WIND       PRES   REMARKS
GREENCASTLE +  PTSUNNY   50  37  62 W3        30.22F
LAFAYETTE      PTSUNNY   52  39  61 SW13      30.20F
6HR MIN TEMP:  33; 6HR MAX TEMP:  52;

TERRE HAUTE    MOSUNNY   54  40  59 SW9       30.22F
6HR MIN TEMP:  36; 6HR MAX TEMP:  54;


$$

INZ030>032-037>040-046>048-054>057-064-065-191900-
CENTRAL INDIANA

CITY           SKY/WX    TMP DP  RH WIND       PRES   REMARKS
CP ATTERBURY + MOSUNNY   52  39  62 CALM      30.22F
COLUMBUS       MOSUNNY   54  41  62 MISG        N/A
FRANKFORT +    PTSUNNY   54  38  56 SW5       30.21F
INDIANAPOLIS   CLOUDY    52  38  58 SW7       30.21F
6HR MIN TEMP:  43; 6HR MAX TEMP:  53;

-EAGLE CREEK   MOSUNNY   54  39  57 VRB3      30.19F
6HR MIN TEMP:  42; 6HR MAX TEMP:  53;

KOKOMO *+      PTSUNNY   54  36  50 SW7       30.20F
MARION +       PTSUNNY   52  33  48 SW3       30.20F
MT COMFORT *+  MOSUNNY   54  27  35 S6        30.21F
SHELBYVILLE    MOSUNNY   55  38  52 SW7       30.20F
6HR MIN TEMP:  45; 6HR MAX TEMP:  56;

ZIONSVILLE +   MOSUNNY   53  35  49 SW5       30.21F
6HR MIN TEMP:  37; 6HR MAX TEMP:  54;


$$

INZ033-034-041-042-049-050-058-059-191900-
EAST CENTRAL INDIANA

CITY           SKY/WX    TMP DP  RH WIND       PRES   REMARKS
MUNCIE         MOSUNNY   53  36  52 W6        30.20F
6HR MIN TEMP:  35; 6HR MAX TEMP:  53;


$$

INZ060-061-067>069-081>083-085>088-191900-
SOUTHWEST INDIANA

CITY           SKY/WX    TMP DP  RH WIND       PRES   REMARKS
EVANSVILLE     SUNNY     56  41  57 S7        30.23F
6HR MIN TEMP:  41; 6HR MAX TEMP:  56;

HUNTINGBURG *+ CLOUDY    54  43  66 NW8       30.24F
6HR MIN TEMP:  37; 6HR MAX TEMP:  54;

WASHINGTON +   PTSUNNY   53  40  60 W5        30.22F
6HR MIN TEMP:  38; 6HR MAX TEMP:  53;


$$

INZ062-063-066-070>080-084-089>092-191900-
SOUTH CENTRAL AND SOUTHEAST INDIANA

CITY           SKY/WX    TMP DP  RH WIND       PRES   REMARKS
BLOOMINGTON    MOSUNNY   53  40  61 SW7       30.22F
6HR MIN TEMP:  45; 6HR MAX TEMP:  53;


$$




USA.gov is the U.S. government's official web portal to all federal, state and local government web resources and services.